Wind_Speed
13 12 12 13 14 18 19 18 19 21 21 18 13 9 10 11 13 11 9 9 9 8 9 10 10 10 10 10 10 10 11 12 13 13 13 14 14 14 14 13 11 11 11 11 11 10 9 8 8 8 8 7 6 6 5 6 6 6 5 5 4 4 3 4 5 5 2 4 4 4 6 6 5 6 8 9 10 9 9 10 10 10 9 9 11
6 6 7 8 10 12 13 14 16 20 22 19 12 10 11 14 14 12 10 10 9 8 8 10 10 11 11 11 11 11 11 11 13 13 13 14 14 14 14 12 10 10 11 9 8 9 8 7 6 7 7 6 6 4 3 4 4 3 4 4 3 3 3 3 4 3 1 4 5 4 7 6 3 6 9 9 9 8 7 9 11 10 9 8 9
6 5 5 5 6 8 9 11 14 18 22 19 12 11 16 17 14 12 11 10 10 9 9 9 10 11 12 12 12 12 12 12 13 14 14 13 13 13 13 11 10 9 9 7 6 6 7 6 5 6 6 6 6 5 4 4 3 3 3 3 3 2 2 2 2 3 2 2 4 2 5 7 3 6 10 11 12 10 7 9 12 12 13 12 11
7 7 6 6 6 6 8 11 13 18 22 19 14 15 19 18 14 13 13 12 11 10 10 10 10 11 12 12 12 13 13 13 14 15 15 14 13 13 12 11 10 8 7 6 5 4 4 3 3 3 3 4 4 3 3 3 3 3 2 2 1 1 3 0 1 2 3 2 1 1 3 6 4 6 9 11 14 15 13 14 15 15 17 17 16
8 8 8 8 8 9 9 10 13 17 19 17 15 17 20 18 14 13 14 14 13 12 11 11 11 11 11 11 12 13 13 14 14 15 15 15 15 14 12 11 10 8 7 6 5 4 4 3 3 3 2 2 2 2 2 2 2 3 3 2 2 4 6 3 2 2 3 3 2 3 4 2 3 6 7 7 8 10 11 13 16 19 22 24 24
8 8 8 9 9 9 10 10 12 14 16 15 15 17 19 19 17 15 14 15 15 14 13 12 12 12 12 12 12 13 13 13 13 14 15 15 15 14 12 11 9 7 6 5 4 4 4 5 5 6 6 6 5 6 6 6 5 5 5 4 5 6 7 6 5 4 4 5 4 5 5 4 4 6 7 8 8 7 7 9 12 14 18 24 27
7 7 7 8 8 8 9 9 10 12 14 15 16 17 17 17 17 18 17 16 16 16 15 14 14 13 13 13 13 14 14 14 14 15 15 15 14 13 12 10 8 7 6 5 5 6 7 8 8 9 10 9 9 9 10 11 10 9 9 8 8 8 8 7 6 5 5 6 6 6 6 6 7 6 7 10 9 6 7 11 13 12 14 21 23
7 6 6 6 6 7 7 8 9 10 11 13 16 19 19 16 14 16 17 18 18 17 17 17 17 15 15 15 15 14 15 15 16 16 16 16 16 14 12 11 10 8 7 7 7 8 8 8 10 11 12 12 13 12 13 13 13 12 13 13 12 10 8 7 7 7 7 8 8 8 7 8 9 8 8 8 7 6 11 17 18 16 17 21 20
5 5 5 5 5 6 7 8 9 10 11 12 15 18 20 20 17 15 16 18 19 18 17 18 19 19 19 18 17 16 15 15 16 16 16 17 16 15 14 13 11 8 8 8 10 10 10 9 10 12 13 13 14 15 16 16 16 14 13 14 17 15 11 9 9 8 8 9 10 10 10 10 11 10 9 9 10 13 17 19 19 18 20 22 19
4 5 5 5 5 5 6 7 7 8 10 11 13 15 16 18 19 18 18 19 20 19 17 18 20 21 21 21 20 19 17 16 16 15 15 15 16 16 16 15 12 8 9 9 10 12 11 9 10 12 13 14 15 16 16 17 19 18 16 17 20 18 13 12 11 9 9 10 11 11 12 12 11 10 10 11 15 19 19 19 20 22 23 22 19
4 4 5 5 5 5 5 5 5 6 7 8 10 12 13 14 16 16 16 17 20 20 17 17 19 20 21 23 23 22 20 19 18 16 16 15 17 19 19 17 16 15 13 11 10 10 9 8 11 13 14 14 16 16 16 17 18 19 19 20 22 18 14 13 12 10 10 10 10 11 11 10 10 10 10 10 13 17 19 21 22 22 22 21 21
4 3 3 3 3 4 3 3 3 4 5 6 7 8 10 12 13 13 13 15 19 19 18 17 18 20 23 24 24 24 24 24 22 20 19 18 19 22 21 18 16 16 15 13 12 11 10 11 13 15 15 15 16 16 16 17 17 18 19 20 21 20 19 17 15 11 10 10 10 10 9 10 10 10 11 13 15 17 20 20 19 19 21 21 21
5 3 3 2 1 2 2 2 3 4 4 5 6 7 8 9 11 12 13 15 18 20 20 20 20 21 23 25 25 25 27 28 27 25 24 21 19 20 20 17 15 15 14 14 13 12 13 14 14 14 14 13 13 13 14 15 15 16 17 18 19 20 20 20 18 15 13 12 10 9 10 12 12 11 15 19 20 20 21 20 19 21 22 23 24
6 5 4 3 2 0 1 2 3 4 4 5 5 5 6 7 10 11 12 12 15 17 19 20 20 21 21 23 26 29 32 34 35 33 31 26 21 19 19 19 18 17 15 13 13 13 13 12 10 10 10 9 9 10 11 12 13 14 15 16 17 18 19 19 18 18 17 16 14 14 16 18 17 16 20 22 21 22 23 23 24 26 27 29 30
6 5 3 3 2 1 1 2 4 4 5 5 6 6 6 7 9 10 11 11 12 14 15 17 18 19 20 21 22 24 28 33 35 35 34 30 24 20 19 19 19 16 14 12 12 11 10 8 7 7 7 7 7 8 9 11 11 11 12 12 13 14 15 15 16 16 16 16 16 18 20 21 20 21 23 23 23 26 27 28 30 31 30 29 26
6 5 4 4 3 3 3 4 5 4 5 6 7 8 9 9 10 10 11 13 13 14 16 17 18 20 20 21 21 21 23 26 27 28 30 29 24 21 18 17 16 14 12 11 10 9 8 6 6 5 5 5 5 6 8 9 9 9 9 9 9 10 10 12 14 15 16 17 18 20 22 22 23 23 23 23 25 27 28 30 29 24 22 21 20
6 5 5 5 5 5 6 7 7 7 7 7 7 9 11 12 12 12 14 15 15 16 18 19 20 20 20 22 22 20 21 23 21 20 24 25 24 21 18 16 15 14 13 11 10 9 7 5 4 4 3 4 4 4 6 7 7 7 8 8 9 9 11 13 14 16 18 19 21 22 23 23 23 24 24 26 27 28 28 28 23 19 18 20 21
8 8 7 7 7 8 8 9 10 10 10 10 9 9 11 12 14 15 16 17 17 17 18 19 20 21 22 22 21 20 21 21 20 19 22 24 24 21 18 16 16 15 12 11 9 7 6 4 3 3 3 3 3 3 3 4 5 6 7 8 9 11 13 14 16 18 20 21 23 23 23 24 25 25 27 27 27 28 27 26 24 21 20 20 20
12 12 12 11 11 11 12 12 13 13 13 14 13 12 11 12 13 14 16 17 17 18 19 20 20 22 24 24 23 23 22 22 21 21 22 24 24 21 17 16 16 14 12 11 9 6 5 4 4 3 3 3 3 3 3 2 4 5 6 6 7 11 14 15 16 19 20 21 23 24 24 26 26 27 28 28 28 28 27 27 25 22 20 19 19
17 16 16 15 15 15 15 16 16 16 16 17 17 16 15 14 13 13 14 15 15 16 18 19 20 21 23 24 24 24 23 23 24 24 23 25 24 20 16 15 15 13 12 9 7 6 5 4 4 3 3 3 3 3 3 4 4 6 6 5 6 11 15 17 17 18 19 21 22 24 25 25 25 25 25 24 24 24 23 23 20 17 17 19 18
23 22 21 19 18 18 18 19 20 19 19 19 19 19 18 17 16 15 14 14 15 15 15 16 17 17 19 20 22 22 22 24 27 27 26 25 23 19 16 14 13 13 11 8 7 6 5 4 4 3 3 3 4 4 5 5 6 8 9 9 11 13 16 17 18 18 19 20 20 20 19 18 18 17 17 16 17 17 18 18 16 13 14 17 19
26 26 25 24 23 22 21 22 22 22 21 21 22 22 21 20 19 17 16 16 16 15 15 16 17 17 19 20 22 23 23 24 27 29 27 24 21 19 17 15 14 13 11 10 9 7 6 5 3 3 3 4 5 5 5 6 7 9 10 12 14 15 15 16 18 17 16 16 16 16 15 13 13 13 13 14 14 15 18 20 16 13 15 16 18
27 27 27 27 27 25 25 25 25 25 24 23 23 23 22 21 21 20 19 19 19 19 19 18 18 19 20 20 22 23 22 23 26 27 26 23 21 20 18 17 15 13 11 11 10 8 6 5 3 4 4 5 5 5 6 7 8 9 11 12 13 13 13 14 15 15 15 15 15 15 13 13 13 13 14 15 16 19 23 23 17 14 16 17 17
27 28 28 28 28 28 28 27 27 27 27 26 25 23 22 22 23 22 21 20 20 21 22 22 22 22 22 22 22 23 24 25 26 25 23 22 21 19 18 16 14 13 12 11 10 8 6 5 4 4 4 4 5 5 6 7 8 8 9 9 10 10 11 12 13 14 14 14 13 12 12 12 14 15 17 19 22 24 24 20 15 14 17 17 17
26 27 27 27 27 28 28 29 29 30 29 28 27 25 22 22 22 23 21 21 21 21 23 25 25 25 26 25 25 26 27 27 27 25 23 22 21 19 18 16 15 14 13 11 10 8 6 5 5 4 4 4 5 5 6 6 7 7 7 8 9 10 11 11 11 12 11 10 10 11 13 14 15 17 18 18 18 19 17 14 14 15 15 15 15
26 27 27 27 28 28 28 29 29 30 30 31 31 28 23 21 21 21 21 22 22 22 23 25 25 26 28 28 28 29 30 29 27 26 24 22 21 20 19 17 16 14 12 10 9 8 6 6 5 4 5 5 5 5 5 5 6 7 8 9 9 10 11 11 10 10 10 10 11 13 14 14 15 16 17 15 14 14 14 14 14 14 13 13 14
23 25 25 26 26 25 26 27 28 28 28 30 32 29 24 22 20 18 20 22 23 22 23 24 25 26 29 32 32 32 31 30 28 27 25 23 22 21 19 17 16 14 12 10 9 8 7 6 5 5 4 4 4 4 5 5 6 7 8 9 10 10 10 10 10 11 11 11 12 14 14 13 14 15 15 14 14 14 13 13 13 13 13 13 14
20 21 22 23 23 23 23 25 28 28 28 29 29 26 26 27 23 17 16 18 19 21 22 23 23 23 25 31 34 34 32 30 29 27 24 22 21 21 19 17 15 14 12 11 9 7 6 6 5 5 4 3 3 4 5 6 7 8 8 9 10 10 9 10 11 11 11 12 14 15 14 12 12 13 14 13 13 13 12 12 13 14 13 13 14
20 20 20 21 21 22 22 23 24 26 27 27 25 23 27 32 30 23 20 18 20 24 26 27 27 25 26 29 33 34 32 30 26 22 19 17 16 16 16 15 14 12 10 8 7 7 7 6 5 4 3 2 3 3 4 6 8 8 8 7 7 6 7 9 9 9 11 14 15 14 12 11 12 13 13 12 12 12 12 13 13 13 13 13 14
21 21 20 20 20 20 21 21 21 22 23 25 24 23 27 32 34 32 31 28 26 26 27 30 31 30 28 29 29 30 28 24 18 16 15 15 15 13 13 12 10 8 7 7 8 8 7 6 5 4 3 2 2 3 4 5 6 6 7 6 4 5 7 8 8 10 14 15 13 11 12 12 13 12 12 13 13 13 13 12 12 13 13 13 14
22 22 21 20 19 19 19 20 20 21 21 22 23 23 24 27 32 34 34 33 30 27 24 25 27 28 28 26 25 24 22 17 13 12 15 16 15 13 12 10 8 8 9 9 10 9 8 7 6 5 4 4 4 4 5 5 3 3 3 3 4 5 7 8 10 14 15 12 10 11 12 12 12 12 12 13 14 14 14 12 12 13 13 14 15
22 23 23 22 20 19 19 19 20 22 22 21 21 22 21 22 25 29 31 32 32 30 26 22 21 23 26 26 24 20 17 14 13 13 14 15 15 13 12 11 11 12 12 11 10 10 9 8 7 6 5 5 5 6 6 4 4 3 2 1 2 5 7 8 12 15 14 9 9 11 11 11 11 12 12 13 14 14 14 13 13 14 14 15 15
22 24 25 25 24 22 21 18 18 20 22 21 21 21 22 21 20 22 27 30 30 30 30 27 24 22 23 25 26 23 18 16 16 16 15 16 17 16 15 16 16 15 14 12 11 11 10 10 8 7 6 6 6 6 5 4 4 3 2 1 2 5 7 10 13 14 12 9 10 11 11 11 12 12 12 13 13 13 14 14 14 14 14 15 15
23 24 25 25 25 24 22 19 17 18 20 21 20 21 23 23 20 18 21 25 28 28 28 30 31 28 26 27 29 27 22 20 20 19 19 20 21 20 19 19 17 16 14 13 12 11 11 10 9 8 7 7 6 5 5 5 4 3 1 2 3 4 7 10 12 12 11 10 10 11 11 11 11 12 13 13 13 13 14 14 15 14 14 15 15
23 24 24 25 25 25 24 22 19 18 18 19 19 20 21 22 21 18 17 20 24 25 25 27 30 32 31 33 34 31 26 24 24 23 23 26 26 24 23 22 19 17 16 14 12 12 11 10 9 9 8 7 6 6 6 6 4 2 1 2 3 5 8 11 12 12 11 10 10 11 11 11 11 12 12 13 13 14 14 15 15 15 14 15 16
23 23 22 23 23 24 25 24 22 18 17 17 18 18 19 20 19 18 17 16 17 20 23 24 26 30 33 35 37 35 31 28 28 27 29 31 30 27 24 22 20 18 17 14 13 12 11 10 10 9 7 7 6 7 7 6 4 2 1 2 4 6 9 10 11 12 10 9 10 11 10 11 12 12 12 13 13 14 14 14 15 16 16 16 17
23 22 22 21 21 21 22 23 22 19 18 17 17 17 18 18 18 17 16 15 15 18 22 23 23 26 28 29 31 34 32 29 27 27 28 29 28 24 22 20 19 18 17 15 14 13 12 11 10 8 7 7 7 7 7 5 3 2 1 2 4 6 8 10 12 13 11 10 11 11 11 11 12 12 12 13 13 13 14 14 15 16 17 17 18
21 20 21 21 20 19 18 19 19 18 16 16 16 16 16 17 17 16 15 13 13 16 20 21 20 21 22 23 25 27 27 25 25 25 27 27 25 21 20 19 18 18 17 16 15 14 11 10 9 8 8 8 8 7 6 5 3 2 1 2 4 6 9 10 12 12 11 10 11 11 11 11 12 12 12 13 14 14 14 14 14 15 17 18 18
20 19 18 16 16 16 15 15 16 15 13 12 14 15 14 14 15 16 15 13 13 14 14 13 14 17 19 22 25 27 27 27 29 31 30 27 23 20 18 18 18 18 17 16 15 13 11 9 8 8 9 9 8 7 5 4 3 2 1 2 4 6 8 8 8 8 9 10 10 11 11 11 12 13 13 13 13 14 14 15 14 15 16 18 19
17 16 14 10 8 10 11 12 14 13 10 9 11 14 15 13 13 14 14 12 12 14 14 11 11 14 16 19 23 28 29 29 30 30 29 28 24 19 17 19 19 19 18 15 13 11 10 9 9 10 11 10 9 7 6 4 2 1 1 2 4 5 7 7 8 10 11 10 10 11 12 12 13 14 13 13 14 15 15 15 14 14 16 18 20
14 13 11 6 3 4 5 8 12 11 8 6 9 13 14 13 12 13 12 10 10 14 15 11 10 12 13 13 17 23 26 27 27 28 29 28 24 20 19 20 20 18 16 13 11 10 10 9 10 11 11 10 8 6 4 3 2 0 2 3 4 5 6 7 9 12 13 12 11 12 14 15 15 16 16 16 17 16 14 14 14 14 15 17 18
12 9 7 5 2 0 2 4 6 7 4 4 7 11 13 12 11 12 11 8 7 10 11 11 12 14 12 13 20 26 28 27 29 31 30 26 22 21 21 21 19 16 13 11 10 10 10 11 12 11 11 10 8 6 4 2 2 0 2 3 4 5 6 7 9 12 14 14 15 17 18 19 18 17 16 15 15 15 14 13 14 14 15 15 15
12 10 7 5 4 1 1 2 4 5 5 4 5 8 11 11 11 11 10 8 7 7 9 12 16 16 13 18 27 31 29 26 26 28 28 26 23 22 21 19 16 14 12 10 10 11 12 13 12 11 11 10 9 7 5 3 2 0 2 4 5 5 6 7 9 11 13 15 17 19 20 21 19 16 14 14 15 15 14 14 14 14 14 14 14
13 13 11 8 7 5 3 1 1 4 5 4 4 7 10 9 9 11 10 8 7 6 6 9 12 12 13 21 28 29 25 23 22 23 26 26 24 21 19 17 14 12 11 11 12 13 13 13 13 12 11 9 8 6 5 3 1 1 3 5 5 5 6 7 9 11 12 14 17 19 20 21 20 16 14 14 15 15 14 14 14 14 15 14 15
10 11 12 11 10 8 7 7 6 4 3 3 4 6 9 8 8 10 9 7 7 6 6 6 8 8 12 21 27 26 23 23 24 25 26 25 22 19 16 13 11 11 11 12 13 14 13 12 12 12 10 8 7 6 4 2 1 2 4 5 6 6 7 7 8 10 12 14 16 18 20 21 20 17 15 15 14 14 14 14 14 15 15 15 16
11 9 9 10 10 8 8 8 8 7 6 6 6 8 10 10 9 9 8 8 8 8 7 7 8 8 14 23 27 24 21 24 27 26 23 21 18 16 14 12 11 11 11 12 13 13 12 10 9 9 8 8 7 5 3 1 2 3 5 6 6 7 7 7 8 10 12 14 16 18 19 20 20 19 17 16 14 14 15 15 15 15 15 15 16
15 12 10 10 10 10 10 10 9 9 8 7 9 10 11 10 9 8 8 8 9 8 7 8 10 12 18 25 26 23 24 27 27 23 20 18 16 14 13 12 11 11 11 11 11 11 11 9 7 7 7 7 6 4 2 1 3 4 5 6 7 8 8 8 8 10 11 13 16 18 19 20 20 19 16 15 15 15 15 15 15 16 16 15 14
15 15 15 14 12 12 12 12 12 10 9 8 9 9 9 9 8 8 8 8 8 8 9 10 12 15 21 25 25 24 25 27 25 21 19 17 15 13 12 12 11 10 10 9 9 9 10 9 7 7 7 6 5 3 2 1 2 3 5 6 8 9 9 9 8 10 11 13 15 17 18 21 21 18 14 14 15 15 14 14 16 17 16 14 14
15 17 18 18 17 15 14 13 12 11 9 9 9 9 9 9 9 9 9 10 10 10 11 14 18 22 24 25 25 25 25 25 23 20 18 15 13 10 10 10 10 9 8 8 9 8 8 8 7 6 6 5 4 3 1 1 1 2 4 6 7 9 10 10 9 10 11 12 14 16 17 19 20 18 14 13 14 14 13 14 16 17 16 14 14
15 17 20 21 21 20 18 15 13 12 11 10 10 10 10 11 11 11 11 12 14 15 17 22 26 27 27 26 26 25 24 22 20 17 15 12 10 8 8 9 8 7 7 9 9 8 7 7 6 6 6 5 4 3 1 1 1 2 3 5 7 9 10 10 10 10 11 12 13 15 16 18 19 18 14 12 13 14 13 13 15 15 15 14 14
11 14 18 20 21 22 22 20 19 17 16 16 16 17 18 18 18 19 19 20 22 23 24 26 27 27 26 25 24 23 21 19 18 15 13 10 9 8 7 8 8 7 8 9 9 7 6 6 6 5 6 6 4 3 2 1 0 1 3 4 6 8 10 11 11 11 11 12 13 14 15 17 19 18 15 12 13 14 13 13 14 15 14 13 13
Wind_Direction
232 235 239 241 240 241 243 240 235 228 213 204 210 234 252 243 218 195 172 163 160 158 156 153 153 152 148 148 147 147 145 141 135 130 128 128 129 128 124 119 120 122 121 123 123 123 124 120 119 119 118 119 116 110 110 113 115 116 117 116 116 117 118 130 140 132 74 35 42 32 17 26 35 19 12 8 6 10 10 5 5 5 358 345 342
198 205 224 233 226 227 236 236 232 226 213 208 228 251 230 209 198 188 178 167 159 160 165 165 162 159 157 156 153 152 151 148 140 135 135 135 134 133 129 126 130 129 123 121 123 126 127 127 123 118 121 125 123 128 138 124 119 119 122 124 120 121 125 137 149 149 82 10 19 20 15 27 27 354 1 5 5 8 2 355 356 353 350 343 331
146 157 183 198 191 197 218 231 232 223 214 216 237 238 211 202 196 186 178 173 171 168 170 174 174 171 168 167 164 160 159 158 153 147 145 142 140 140 137 135 136 131 125 128 133 131 127 129 130 127 127 126 130 148 161 145 151 158 137 131 126 114 117 148 166 169 177 1 15 11 360 14 18 349 354 352 354 3 353 343 347 341 339 341 331
148 157 171 182 190 201 217 228 222 211 211 222 239 230 211 203 199 192 186 184 184 184 185 184 184 184 181 178 175 169 166 166 163 159 156 152 149 147 144 143 142 139 141 150 157 158 148 152 162 150 139 133 138 159 163 156 168 182 175 150 126 18 356 13 181 197 205 213 93 212 311 353 358 346 352 347 344 349 346 339 340 334 330 334 331
150 163 174 180 191 203 210 215 210 208 216 230 239 230 215 208 206 201 197 195 194 196 198 196 196 197 193 190 188 182 177 173 170 169 167 164 162 159 156 155 154 153 159 165 172 184 192 205 221 234 253 263 247 236 229 219 206 208 220 215 221 286 310 302 241 245 250 237 236 269 290 308 309 322 339 340 332 337 338 335 333 331 329 329 328
150 164 174 180 190 198 203 207 211 219 228 236 240 233 223 222 223 217 210 207 204 203 205 206 207 206 202 198 196 193 188 182 178 178 178 176 174 170 165 163 162 166 174 182 197 215 227 233 237 245 254 261 258 254 262 268 257 242 242 237 235 257 278 282 265 267 273 258 255 281 290 277 280 301 316 324 324 320 323 331 330 327 325 325 327
151 163 171 179 191 200 206 211 217 227 231 234 236 231 227 232 234 229 224 219 215 212 212 213 213 211 210 205 200 199 197 192 190 189 188 188 188 182 173 168 170 183 194 206 227 237 244 249 250 252 256 259 259 258 264 270 270 264 259 254 249 257 269 272 262 262 267 266 271 279 279 283 290 291 300 317 326 318 314 326 328 321 317 321 325
151 163 171 177 193 208 218 219 217 223 228 230 231 229 231 239 244 239 232 227 226 224 222 222 221 218 215 211 208 207 204 200 200 199 198 199 198 193 185 180 187 200 211 226 239 241 247 259 263 263 263 263 262 261 260 263 266 265 264 262 258 256 262 259 255 264 266 266 278 283 279 286 295 296 300 315 322 308 309 320 326 324 321 323 324
141 155 167 175 193 208 221 224 219 223 226 228 231 233 237 245 252 253 246 238 232 231 233 233 231 228 225 221 218 215 209 206 207 208 209 210 210 208 203 198 198 210 232 250 255 253 256 269 273 267 263 264 264 262 260 258 258 258 257 260 262 261 258 252 255 264 263 266 278 279 279 288 291 290 295 301 303 305 313 322 326 324 322 322 322
133 147 161 174 190 199 214 223 223 226 227 228 233 239 244 250 255 258 258 251 240 235 239 241 237 234 230 226 224 220 216 215 215 215 217 220 223 223 219 214 214 234 259 270 272 269 269 272 273 270 266 266 266 264 263 263 263 262 255 255 263 267 258 248 252 255 254 267 279 275 278 290 290 286 291 297 302 309 316 322 323 321 322 321 319
127 138 154 171 184 191 205 219 222 228 232 234 238 242 245 248 251 251 250 246 239 236 239 240 236 232 227 227 227 223 221 224 225 225 229 234 240 244 244 241 242 252 264 276 281 278 275 270 270 275 275 272 270 268 266 264 265 266 263 260 266 266 252 242 243 246 251 263 273 272 276 288 291 290 294 300 306 311 315 319 320 319 319 316 314
116 125 143 159 179 188 197 214 229 234 237 240 242 244 243 240 241 240 233 231 232 233 239 245 241 231 227 228 228 225 225 228 229 233 242 252 257 260 262 257 246 247 258 270 273 269 269 269 270 274 275 273 273 274 272 267 264 266 267 267 269 265 254 245 238 238 249 259 271 276 276 286 295 291 288 293 302 307 312 317 316 311 311 310 308
84 90 102 108 149 192 202 232 249 247 244 244 241 240 241 238 236 232 227 231 235 237 243 250 246 237 232 233 235 238 238 234 231 233 244 256 261 259 258 248 238 247 260 263 264 265 271 273 271 271 272 271 272 272 272 271 267 266 268 269 269 262 253 248 245 247 253 257 267 273 271 282 291 285 285 296 304 308 312 313 310 307 307 304 301
54 64 71 71 79 157 267 272 264 257 253 252 249 244 244 239 232 228 227 231 234 236 239 242 240 238 241 245 247 248 246 242 236 234 240 250 253 250 247 238 236 249 256 254 258 264 267 266 260 261 265 265 265 264 266 270 269 269 270 269 265 256 247 245 248 253 256 258 266 273 276 286 292 290 294 302 306 308 311 311 308 307 305 303 304
30 32 35 34 28 351 310 282 274 272 265 261 259 255 250 243 235 232 232 233 232 230 230 231 236 241 245 249 249 249 249 247 242 239 241 245 245 240 237 232 233 241 242 241 250 253 251 247 244 251 259 262 266 266 265 268 268 266 266 263 258 252 247 247 249 253 258 265 273 281 287 294 298 298 300 304 307 310 312 311 310 310 309 309 309
13 1 353 346 326 312 301 285 281 283 282 281 274 267 264 259 251 245 243 243 241 237 233 232 238 242 241 241 242 247 252 252 248 243 239 237 234 229 226 225 224 223 222 227 234 235 232 230 231 241 257 263 271 271 260 256 258 260 260 257 256 253 250 251 254 259 267 275 282 288 293 296 297 297 299 302 306 309 310 310 311 311 307 303 301
345 333 323 314 304 300 295 290 289 287 286 289 286 280 275 269 262 255 251 249 246 244 243 240 240 240 235 234 240 246 249 247 242 233 227 224 221 216 211 209 208 207 212 217 220 221 220 217 218 232 251 257 260 258 247 243 248 254 252 250 253 254 254 258 264 271 277 282 286 289 292 293 295 296 299 303 305 305 306 307 307 302 295 294 295
308 302 296 291 290 290 285 281 281 282 281 280 277 277 278 274 266 258 253 250 247 245 245 240 237 237 233 231 235 239 240 236 226 216 213 214 210 201 194 196 200 204 209 212 212 215 216 218 231 245 257 264 267 265 249 233 230 238 246 251 255 258 261 265 271 276 279 283 286 288 291 294 296 298 299 300 301 301 302 303 303 300 296 293 293
293 290 286 283 281 280 278 275 274 273 273 272 270 269 271 273 269 260 254 252 247 245 245 241 239 240 237 233 231 231 232 227 217 208 205 204 200 193 188 192 199 202 203 205 209 214 220 234 250 254 261 276 287 295 286 253 231 239 252 256 253 260 269 275 279 283 286 289 292 294 297 298 299 300 300 300 300 301 302 303 306 304 297 291 292
294 290 285 282 280 278 276 274 271 269 268 267 267 267 266 266 264 259 256 252 246 245 245 243 241 240 235 231 230 230 230 223 213 204 196 192 192 189 185 188 195 198 200 205 212 218 226 235 241 244 261 282 294 302 298 283 265 258 257 243 237 260 276 281 283 286 290 294 297 300 302 304 305 307 308 307 306 306 306 305 305 301 293 291 293
295 291 286 281 277 274 273 272 270 269 268 266 265 265 263 259 255 252 250 247 243 238 233 232 232 228 223 221 222 221 221 217 207 193 184 186 191 188 183 185 187 187 191 194 193 205 222 228 230 247 275 294 300 304 299 289 277 268 263 256 255 267 280 285 286 290 293 297 300 302 303 304 304 304 304 301 299 299 298 295 293 289 286 288 290
291 289 286 281 277 271 268 267 267 265 265 265 265 264 259 254 249 245 242 241 236 227 220 217 218 217 216 215 212 211 210 206 195 184 179 186 193 191 186 187 186 181 178 175 175 192 219 229 240 267 286 296 299 300 293 283 275 268 265 265 268 273 279 285 291 295 297 298 299 299 299 297 294 292 292 290 290 289 287 288 288 285 282 281 282
288 286 283 280 279 274 269 265 263 262 262 261 261 261 257 250 243 239 239 237 232 226 219 212 209 210 209 205 202 199 194 188 185 183 183 189 195 197 197 199 196 186 177 177 186 206 230 242 255 269 281 289 291 289 282 274 268 266 266 268 273 277 283 290 295 298 298 299 299 299 300 296 293 293 291 289 289 287 287 288 288 286 285 283 280
289 286 283 280 278 275 271 267 263 262 261 260 258 258 255 248 240 237 237 234 230 227 221 215 210 206 201 198 196 194 188 184 187 189 190 194 199 202 203 204 202 193 185 190 205 223 237 246 255 264 274 280 277 275 273 269 267 270 274 278 284 291 298 301 301 301 303 305 303 302 299 296 296 295 293 291 292 292 293 295 294 291 288 287 284
287 285 283 280 277 273 270 266 263 261 261 260 257 255 254 251 244 237 233 229 227 225 221 218 214 208 205 203 201 196 192 191 192 192 194 196 199 200 200 201 203 201 198 204 218 229 237 242 247 255 259 263 267 268 266 268 273 278 285 295 302 306 307 305 303 305 308 305 301 300 300 300 300 298 296 297 297 297 298 299 297 293 289 288 288
292 287 283 279 276 272 269 266 263 260 259 259 256 253 254 253 248 240 232 227 225 225 222 218 212 209 211 210 204 198 195 194 193 192 191 192 193 194 196 200 202 204 206 212 219 222 226 230 236 242 247 250 257 261 263 273 286 293 299 308 313 312 310 308 307 309 310 305 303 306 306 306 307 304 302 302 302 302 302 301 298 296 295 295 293
299 295 290 284 278 273 268 265 262 259 257 256 255 253 251 248 245 240 233 228 226 226 224 220 215 211 210 209 204 200 196 193 190 188 187 187 189 192 196 199 201 202 207 212 215 216 218 223 225 228 236 245 251 263 278 291 302 310 314 316 315 312 309 309 310 313 315 314 313 314 312 309 309 307 304 303 303 302 301 300 298 297 298 297 296
296 294 292 288 282 276 270 265 262 259 256 255 254 250 246 244 242 239 234 230 226 223 217 213 211 208 205 205 203 198 193 190 188 187 186 185 188 191 195 198 199 202 207 210 210 210 209 211 215 217 225 245 263 283 299 306 311 317 318 316 316 316 315 318 321 322 322 321 318 316 314 310 306 304 304 303 303 303 303 301 299 298 298 297 295
290 289 288 286 283 279 274 269 265 261 258 256 252 247 247 246 243 237 235 230 223 221 217 213 209 202 195 197 197 194 191 189 186 185 186 187 190 194 196 197 198 203 211 215 215 212 207 204 207 211 222 253 277 284 293 305 314 316 314 316 321 324 324 327 326 321 321 324 322 317 314 311 307 306 308 306 304 304 304 301 299 298 297 296 295
287 284 282 281 280 279 275 271 267 262 259 256 251 247 250 251 246 239 237 236 232 230 227 224 221 213 202 197 196 193 189 186 184 186 187 187 190 192 192 193 200 215 226 224 217 212 205 200 199 198 208 225 221 229 267 300 313 311 312 319 322 320 325 331 330 326 328 331 328 318 312 310 308 307 307 306 305 306 305 301 300 300 298 296 295
284 281 278 276 275 276 276 273 267 261 258 256 252 246 248 253 251 243 239 238 238 236 230 223 221 218 209 201 197 193 187 185 191 195 190 186 188 189 190 195 214 233 234 225 214 206 198 192 191 190 190 194 207 236 270 289 281 259 290 318 320 325 331 332 333 335 336 332 321 315 312 309 307 307 306 307 309 310 308 305 303 300 297 295 294
284 281 279 275 271 270 273 274 269 261 257 256 252 244 240 246 250 247 240 236 235 235 231 222 218 216 208 199 197 201 203 206 207 201 195 196 197 196 200 208 217 222 220 210 201 195 188 181 185 194 199 210 237 263 272 263 234 212 213 279 302 319 328 330 337 344 345 331 314 316 316 312 311 310 308 309 310 309 307 305 303 300 297 296 293
284 281 279 277 273 268 268 270 269 263 257 253 251 246 239 235 239 243 240 235 232 231 228 224 224 226 218 210 212 220 226 223 209 198 200 209 207 202 206 211 210 208 204 192 186 187 186 184 189 198 206 219 243 258 248 223 208 202 207 265 306 320 330 337 343 345 341 327 318 318 317 315 315 313 311 311 310 306 304 303 302 300 297 296 295
292 286 281 278 274 268 263 263 266 265 260 253 247 244 239 234 232 234 235 233 232 231 228 226 228 231 228 219 216 218 221 216 203 195 201 209 207 205 207 206 200 198 195 187 184 189 191 190 192 197 205 219 233 235 215 197 189 196 232 316 332 330 335 343 345 340 333 327 323 321 318 318 319 318 315 312 308 305 303 301 300 299 297 296 297
304 296 288 281 276 270 264 260 259 262 262 256 247 241 238 234 231 228 227 229 230 230 230 227 224 223 222 215 211 214 217 210 202 202 206 206 203 203 203 199 192 192 192 188 185 189 191 191 195 201 209 218 218 203 191 188 189 201 265 333 343 340 345 350 347 340 334 329 325 323 323 322 322 319 316 313 310 307 305 301 299 298 296 295 298
311 305 299 287 277 272 269 264 258 255 257 257 251 243 236 232 229 224 220 218 219 223 228 228 223 221 222 219 217 221 219 208 205 212 212 204 201 202 200 196 194 195 191 186 183 186 190 193 195 198 200 200 193 184 182 185 190 208 253 332 350 350 352 350 340 334 335 334 330 329 327 324 323 322 318 316 313 309 305 301 298 296 296 301 308
313 307 301 291 278 270 267 268 264 256 251 252 251 243 234 229 225 221 217 212 206 211 222 229 228 223 223 224 225 225 221 215 218 222 212 200 196 197 195 195 198 195 187 184 186 191 195 196 192 189 186 181 174 172 176 181 189 216 267 344 358 351 349 348 346 347 350 346 336 332 329 326 325 324 320 317 315 310 305 302 298 296 301 311 317
316 306 297 288 277 263 257 263 267 260 251 248 245 239 232 227 222 219 214 205 199 204 216 225 228 224 223 224 224 223 223 221 215 206 197 191 187 186 187 191 193 188 183 186 193 196 196 194 187 180 174 169 165 169 177 182 192 218 280 356 354 348 349 352 353 353 350 342 334 332 332 328 325 324 321 318 316 311 307 304 300 299 307 317 322
322 316 305 290 272 255 248 253 259 258 253 247 238 230 225 223 220 217 213 204 197 198 202 208 219 224 222 218 217 221 224 213 193 183 184 184 178 176 181 183 181 180 184 190 195 195 192 189 183 175 169 165 163 169 177 179 191 220 300 355 347 345 348 349 343 339 337 335 335 336 334 330 327 326 323 317 314 314 314 311 307 304 309 318 324
333 331 324 304 265 244 242 246 251 253 251 242 230 222 218 214 212 212 213 208 205 206 203 198 209 220 222 221 220 217 210 193 177 175 181 181 174 172 176 177 178 184 188 191 194 190 186 185 181 175 173 169 164 170 180 180 182 233 332 347 340 341 343 340 337 339 339 337 337 338 335 331 328 327 326 325 328 331 327 319 311 306 310 319 327
349 345 340 330 282 230 232 242 247 250 248 236 222 215 211 210 211 213 211 204 206 214 214 206 205 216 224 226 216 202 187 177 176 181 182 177 172 171 173 175 182 188 189 188 188 183 179 180 176 172 173 171 166 168 180 178 165 128 344 340 335 339 341 337 336 340 342 341 341 339 337 336 336 337 339 341 341 337 328 317 310 308 311 318 326
3 0 2 9 15 223 216 233 239 234 222 216 215 208 203 203 207 210 208 201 199 206 205 201 210 219 216 199 191 187 182 180 184 183 178 172 168 170 174 179 184 185 183 182 182 181 180 175 168 165 168 168 159 151 154 161 161 71 354 344 335 335 336 331 331 337 342 344 343 342 343 346 348 347 343 339 336 331 325 320 317 315 314 317 324
23 24 31 41 43 45 222 241 241 222 201 190 196 197 196 197 199 201 200 192 179 180 193 210 222 224 206 188 188 187 182 178 178 174 170 169 169 170 175 179 178 175 177 181 182 182 176 166 160 166 174 175 168 160 160 167 170 58 1 348 337 331 328 326 330 336 340 342 344 345 348 353 354 350 340 336 338 338 334 327 322 320 320 322 328
39 39 40 45 47 51 65 61 252 218 200 179 165 176 182 185 190 194 194 185 174 181 203 218 219 212 197 190 189 182 169 163 164 165 165 168 171 172 175 176 171 170 176 180 180 177 169 162 166 175 176 176 176 173 169 170 162 31 360 348 341 334 327 324 328 333 338 342 345 349 353 356 357 353 345 343 344 343 336 329 326 326 328 332 338
45 44 43 45 46 48 59 65 65 88 142 148 142 157 166 169 175 183 183 180 184 196 202 197 192 192 191 188 183 174 164 165 170 171 170 170 171 171 171 170 167 169 174 176 176 173 167 168 177 179 172 169 174 173 166 162 85 18 358 346 343 340 332 324 324 330 338 343 347 351 355 358 358 357 353 350 346 339 333 332 332 332 333 339 346
42 44 48 51 50 52 66 74 71 75 96 112 114 124 140 153 164 169 170 177 189 194 192 183 174 173 182 184 180 173 168 172 175 174 170 167 165 166 166 166 165 166 168 172 175 174 169 165 167 168 166 167 169 167 159 117 26 10 355 347 346 343 335 325 323 330 337 343 347 352 355 357 0 2 0 355 346 337 334 336 338 336 337 342 346
43 48 58 65 64 66 76 84 84 82 87 97 104 113 127 139 147 150 159 173 179 172 167 165 159 163 178 183 177 169 167 170 169 166 163 160 159 161 161 160 160 161 164 168 172 174 175 171 161 159 166 168 166 163 152 59 21 5 356 353 351 347 342 333 329 333 338 343 348 351 353 358 3 4 356 347 342 338 337 339 341 340 341 343 343
44 48 58 68 74 78 85 91 91 84 76 79 90 101 110 117 124 132 143 152 150 141 142 147 152 163 173 173 165 162 164 163 158 154 152 150 149 150 152 155 157 158 163 168 168 169 175 177 170 165 170 172 170 166 144 54 24 9 3 359 355 355 352 345 338 338 339 344 348 350 353 360 5 1 346 338 339 338 336 340 344 346 347 347 345
52 54 60 66 71 78 89 99 100 91 79 74 79 86 91 99 108 116 118 118 119 123 131 141 150 157 159 155 153 157 160 155 150 148 146 143 143 144 148 154 158 158 161 170 170 168 172 174 169 169 177 180 175 166 141 68 39 22 8 0 1 3 0 353 347 345 343 346 351 352 354 0 4 360 346 338 340 338 336 341 348 352 353 350 346
58 62 66 70 72 75 81 89 96 96 92 88 87 90 93 95 98 101 103 108 116 124 132 139 144 147 148 148 151 156 157 153 150 149 146 146 151 151 150 157 163 162 164 169 170 170 172 170 169 176 183 180 173 166 155 133 88 33 7 2 8 12 8 3 0 356 351 352 355 354 355 1 5 1 350 341 342 343 341 343 348 353 353 348 344
56 62 68 73 76 77 79 80 83 86 89 92 97 102 105 105 106 108 111 115 121 127 132 136 139 141 144 147 152 155 156 155 154 151 150 154 159 159 161 166 165 161 164 169 170 172 174 173 175 182 181 174 169 172 177 172 122 22 7 7 14 18 17 16 15 11 6 4 1 359 0 4 4 360 353 346 346 348 347 344 348 352 351 347 346
Height
1523 1525 1526 1528 1530 1531 1531 1533 1535 1537 1539 1540 1541 1541 1542 1541 1542 1543 1543 1544 1545 1546 1547 1548 1549 1549 1550 1551 1552 1552 1553 1554 1554 1555 1556 1557 1558 1559 1560 1561 1562 1563 1564 1564 1565 1566 1567 1567 1567 1567 1568 1569 1569 1570 1570 1570 1571 1571 1572 1572 1572 1573 1573 1574 1574 1573 1573 1573 1572 1572 1571 1571 1571 1570 1569 1568 1567 1567 1566 1565 1564 1563 1562 1561 1560
1522 1523 1524 1525 1527 1529 1530 1532 1534 1536 1538 1539 1540 1541 1541 1541 1542 1543 1543 1544 1545 1546 1547 1547 1548 1549 1550 1551 1552 1553 1554 1554 1555 1556 1557 1557 1558 1559 1560 1561 1562 1563 1564 1565 1566 1566 1567 1567 1568 1568 1568 1568 1569 1570 1571 1571 1572 1572 1572 1573 1573 1573 1573 1574 1574 1573 1572 1572 1571 1571 1570 1570 1570 1569 1568 1568 1567 1566 1566 1565 1564 1563 1562 1561 1560
1520 1521 1522 1523 1525 1527 1529 1531 1533 1535 1536 1538 1539 1540 1541 1541 1542 1542 1543 1544 1544 1545 1546 1547 1548 1549 1550 1551 1552 1553 1554 1554 1555 1556 1557 1557 1558 1559 1560 1561 1562 1563 1564 1565 1566 1566 1567 1567 1568 1568 1568 1568 1569 1570 1570 1570 1572 1572 1572 1572 1572 1572 1573 1573 1573 1573 1572 1571 1571 1571 1570 1569 1569 1569 1567 1567 1566 1566 1565 1564 1563 1562 1561 1561 1560
1520 1521 1522 1523 1524 1526 1528 1530 1532 1533 1535 1537 1538 1539 1540 1541 1541 1541 1542 1543 1544 1545 1546 1547 1548 1549 1549 1551 1551 1552 1553 1554 1555 1556 1556 1557 1558 1559 1560 1561 1562 1563 1564 1565 1566 1567 1567 1567 1568 1568 1568 1568 1569 1569 1569 1570 1571 1571 1571 1571 1571 1571 1571 1572 1572 1573 1572 1571 1571 1571 1570 1569 1568 1568 1567 1566 1565 1564 1564 1563 1562 1561 1560 1559 1558
1521 1523 1523 1523 1525 1526 1528 1530 1531 1533 1535 1536 1537 1538 1539 1540 1541 1541 1541 1542 1543 1544 1545 1546 1547 1548 1549 1550 1551 1552 1553 1554 1555 1555 1556 1557 1557 1558 1559 1560 1561 1562 1563 1564 1565 1566 1566 1567 1568 1568 1568 1568 1568 1569 1569 1569 1570 1570 1570 1571 1571 1570 1570 1571 1571 1572 1572 1571 1570 1569 1569 1568 1568 1567 1566 1566 1566 1564 1564 1562 1561 1559 1557 1556 1556
1521 1523 1524 1524 1525 1526 1528 1530 1531 1532 1534 1535 1536 1537 1538 1539 1539 1540 1540 1541 1541 1542 1544 1545 1546 1547 1549 1550 1551 1552 1553 1554 1554 1555 1555 1556 1556 1557 1558 1559 1560 1561 1562 1563 1564 1565 1565 1566 1567 1567 1567 1567 1568 1568 1568 1568 1569 1569 1569 1570 1570 1569 1569 1570 1570 1570 1571 1571 1570 1568 1568 1567 1567 1566 1565 1565 1565 1564 1564 1563 1561 1559 1557 1555 1554
1521 1522 1523 1524 1525 1526 1527 1529 1530 1531 1532 1533 1534 1535 1536 1537 1538 1538 1539 1540 1540 1541 1543 1544 1545 1546 1548 1549 1550 1551 1552 1553 1554 1554 1555 1555 1556 1556 1557 1558 1559 1560 1561 1562 1563 1563 1564 1564 1565 1565 1566 1566 1566 1567 1567 1567 1567 1568 1568 1568 1568 1568 1568 1568 1569 1569 1569 1569 1569 1568 1567 1566 1566 1565 1564 1563 1563 1563 1562 1561 1561 1560 1557 1555 1553
1521 1522 1522 1523 1524 1525 1526 1527 1528 1529 1530 1531 1532 1533 1534 1535 1536 1536 1537 1538 1539 1540 1541 1543 1544 1545 1546 1547 1548 1549 1550 1552 1552 1553 1554 1554 1555 1556 1556 1557 1558 1559 1559 1560 1561 1561 1562 1562 1563 1563 1564 1564 1564 1565 1565 1566 1565 1566 1566 1566 1566 1566 1567 1567 1567 1568 1568 1568 1567 1567 1567 1566 1565 1565 1563 1562 1562 1562 1560 1558 1558 1557 1555 1553 1552
1521 1522 1522 1523 1524 1525 1526 1526 1527 1528 1528 1529 1530 1531 1532 1533 1533 1534 1535 1536 1537 1538 1540 1541 1542 1543 1544 1545 1547 1548 1549 1550 1551 1552 1553 1553 1554 1555 1555 1555 1556 1557 1558 1559 1559 1560 1560 1560 1560 1561 1562 1562 1562 1562 1563 1563 1563 1564 1564 1564 1564 1564 1565 1566 1566 1566 1566 1566 1566 1566 1566 1565 1564 1564 1563 1561 1560 1559 1557 1556 1555 1555 1553 1551 1551
1520 1521 1522 1523 1524 1524 1525 1525 1526 1526 1526 1527 1528 1528 1529 1530 1530 1531 1532 1533 1534 1536 1537 1539 1540 1541 1542 1543 1544 1545 1547 1548 1549 1550 1551 1552 1553 1553 1554 1554 1555 1556 1557 1558 1558 1558 1558 1558 1558 1559 1559 1559 1560 1560 1560 1561 1561 1562 1562 1562 1561 1561 1563 1564 1564 1564 1564 1564 1564 1564 1564 1563 1563 1562 1561 1559 1558 1556 1555 1555 1554 1552 1551 1549 1549
1520 1521 1522 1523 1523 1524 1524 1524 1525 1525 1525 1526 1526 1526 1527 1527 1528 1528 1529 1530 1531 1533 1535 1536 1537 1539 1540 1540 1541 1543 1544 1546 1547 1548 1549 1551 1552 1552 1552 1554 1554 1555 1556 1556 1557 1557 1557 1557 1557 1557 1557 1557 1557 1557 1558 1558 1558 1559 1560 1559 1559 1560 1560 1561 1561 1562 1562 1562 1562 1562 1562 1562 1561 1560 1559 1557 1556 1555 1554 1553 1552 1551 1550 1548 1547
1521 1522 1522 1522 1522 1522 1523 1523 1523 1524 1524 1525 1525 1525 1526 1526 1526 1527 1527 1528 1529 1530 1532 1533 1534 1536 1537 1538 1539 1540 1542 1543 1545 1546 1547 1549 1550 1550 1550 1552 1552 1553 1554 1554 1555 1555 1555 1556 1555 1555 1555 1555 1555 1555 1555 1556 1556 1556 1557 1557 1557 1558 1558 1558 1559 1559 1559 1559 1560 1560 1560 1559 1559 1558 1557 1556 1555 1554 1552 1552 1551 1549 1548 1546 1545
1521 1521 1521 1521 1521 1521 1521 1522 1523 1523 1523 1523 1524 1524 1524 1524 1524 1525 1526 1526 1527 1528 1529 1530 1531 1533 1534 1535 1536 1537 1539 1540 1542 1543 1545 1547 1548 1548 1549 1549 1550 1551 1551 1552 1553 1553 1553 1553 1553 1553 1552 1552 1553 1553 1553 1553 1553 1554 1554 1554 1555 1555 1555 1556 1556 1557 1557 1557 1558 1558 1557 1557 1557 1556 1554 1553 1553 1552 1550 1550 1548 1547 1545 1544 1542
1520 1519 1519 1519 1519 1520 1520 1521 1521 1521 1522 1522 1522 1522 1522 1522 1523 1523 1524 1524 1524 1525 1526 1527 1528 1530 1531 1532 1532 1533 1534 1536 1538 1540 1543 1545 1546 1546 1546 1547 1547 1548 1549 1549 1550 1551 1551 1551 1551 1551 1550 1551 1551 1551 1551 1551 1551 1552 1552 1552 1552 1552 1553 1554 1554 1555 1555 1555 1555 1555 1554 1554 1554 1553 1551 1551 1550 1549 1548 1547 1545 1544 1542 1540 1538
1519 1519 1519 1519 1518 1518 1519 1519 1520 1520 1520 1520 1520 1520 1521 1521 1521 1522 1522 1522 1523 1523 1524 1525 1525 1526 1527 1528 1528 1529 1529 1531 1533 1537 1539 1542 1543 1544 1544 1544 1545 1545 1546 1548 1548 1549 1549 1549 1549 1549 1549 1549 1549 1550 1550 1550 1550 1550 1550 1550 1550 1550 1551 1552 1552 1553 1553 1553 1553 1552 1551 1551 1551 1549 1548 1548 1547 1546 1544 1543 1541 1539 1537 1535 1533
1519 1519 1519 1518 1518 1518 1518 1518 1518 1518 1518 1519 1519 1519 1519 1519 1520 1520 1520 1521 1521 1521 1522 1522 1522 1523 1524 1524 1525 1526 1527 1528 1530 1533 1535 1538 1540 1541 1541 1542 1542 1543 1544 1546 1546 1547 1547 1547 1547 1548 1548 1548 1548 1548 1548 1548 1548 1549 1549 1549 1549 1549 1549 1550 1550 1551 1551 1551 1550 1550 1549 1548 1548 1547 1546 1545 1544 1543 1541 1539 1538 1537 1535 1533 1531
1519 1519 1518 1518 1517 1517 1517 1517 1517 1517 1517 1517 1517 1518 1517 1518 1518 1518 1518 1519 1519 1519 1519 1519 1520 1520 1521 1521 1522 1523 1525 1526 1528 1530 1532 1535 1537 1538 1538 1539 1540 1541 1543 1543 1544 1545 1545 1546 1546 1546 1546 1546 1546 1546 1547 1547 1547 1547 1548 1548 1548 1548 1548 1548 1548 1549 1548 1548 1548 1547 1546 1545 1544 1544 1543 1542 1541 1540 1539 1537 1536 1535 1533 1531 1529
1518 1517 1517 1517 1517 1516 1516 1516 1516 1516 1516 1516 1516 1516 1516 1516 1516 1516 1516 1516 1516 1517 1517 1517 1517 1517 1518 1518 1519 1520 1522 1524 1526 1528 1530 1532 1534 1535 1537 1537 1538 1539 1540 1541 1542 1543 1543 1544 1544 1544 1544 1545 1545 1545 1545 1546 1546 1546 1546 1546 1546 1546 1546 1547 1546 1546 1546 1545 1545 1544 1543 1542 1541 1540 1539 1539 1538 1537 1535 1534 1533 1532 1530 1528 1526
1516 1516 1516 1516 1516 1516 1515 1515 1515 1515 1515 1515 1514 1514 1514 1514 1514 1514 1514 1513 1514 1514 1514 1514 1514 1514 1515 1515 1516 1517 1519 1522 1525 1526 1528 1530 1532 1534 1536 1536 1536 1537 1539 1539 1540 1541 1541 1542 1542 1542 1543 1543 1543 1543 1544 1544 1545 1545 1545 1545 1545 1545 1544 1544 1544 1544 1543 1542 1541 1541 1540 1539 1538 1537 1535 1534 1534 1533 1532 1530 1529 1528 1527 1525 1524
1515 1515 1515 1515 1514 1514 1514 1513 1513 1513 1513 1513 1512 1512 1512 1512 1512 1512 1512 1512 1512 1512 1511 1511 1512 1512 1512 1512 1513 1514 1517 1521 1523 1524 1526 1528 1530 1533 1535 1535 1534 1535 1537 1537 1538 1539 1539 1540 1540 1541 1541 1541 1541 1542 1542 1542 1543 1543 1543 1544 1544 1543 1542 1542 1542 1541 1541 1540 1539 1538 1537 1535 1534 1533 1531 1530 1529 1528 1527 1526 1525 1525 1524 1522 1521
1512 1512 1513 1513 1513 1512 1512 1511 1511 1511 1510 1510 1510 1510 1510 1510 1510 1510 1510 1510 1510 1510 1509 1509 1509 1510 1510 1510 1512 1513 1515 1518 1520 1521 1524 1526 1528 1531 1533 1533 1533 1534 1535 1536 1536 1537 1537 1538 1539 1539 1539 1539 1539 1540 1540 1540 1540 1541 1541 1542 1542 1541 1541 1540 1540 1539 1538 1537 1536 1536 1535 1533 1532 1531 1530 1529 1527 1526 1525 1523 1523 1522 1521 1519 1519
1509 1509 1509 1509 1510 1510 1510 1509 1508 1508 1508 1507 1507 1507 1508 1508 1508 1508 1509 1508 1508 1509 1508 1508 1508 1508 1509 1509 1511 1512 1513 1516 1517 1519 1521 1525 1527 1529 1530 1531 1532 1533 1534 1534 1535 1535 1535 1536 1537 1537 1537 1537 1537 1538 1538 1538 1538 1539 1539 1539 1539 1539 1539 1538 1537 1537 1536 1536 1535 1534 1533 1532 1531 1530 1529 1528 1526 1524 1522 1521 1520 1519 1518 1517 1516
1505 1505 1505 1505 1506 1506 1506 1506 1506 1506 1505 1505 1505 1505 1505 1505 1505 1506 1506 1506 1507 1507 1507 1507 1507 1507 1507 1508 1510 1511 1512 1514 1517 1518 1520 1523 1525 1527 1528 1529 1530 1531 1532 1532 1533 1533 1534 1534 1535 1535 1535 1535 1535 1536 1536 1536 1536 1537 1537 1537 1537 1537 1537 1536 1535 1535 1534 1533 1532 1532 1531 1530 1529 1528 1527 1525 1523 1521 1519 1517 1516 1515 1514 1512 1511
1502 1502 1501 1502 1502 1502 1502 1502 1503 1502 1502 1502 1502 1502 1502 1502 1502 1503 1503 1504 1505 1505 1505 1505 1505 1505 1506 1507 1508 1510 1512 1513 1516 1517 1519 1521 1523 1524 1526 1527 1528 1529 1530 1530 1531 1531 1532 1532 1533 1533 1533 1533 1533 1533 1534 1534 1534 1534 1534 1534 1534 1534 1534 1534 1533 1532 1532 1531 1530 1529 1529 1528 1526 1525 1523 1521 1519 1516 1514 1513 1513 1512 1511 1509 1507
1498 1497 1497 1498 1498 1498 1498 1498 1498 1498 1498 1499 1499 1499 1499 1499 1499 1500 1500 1501 1502 1503 1503 1503 1503 1504 1505 1505 1507 1509 1510 1512 1513 1515 1517 1518 1520 1522 1523 1525 1526 1527 1527 1528 1529 1530 1530 1531 1531 1531 1531 1531 1531 1531 1532 1532 1532 1532 1532 1532 1532 1532 1532 1532 1531 1530 1530 1529 1528 1527 1526 1525 1523 1521 1519 1517 1515 1513 1512 1511 1510 1509 1507 1505 1503
1493 1492 1492 1492 1493 1493 1493 1493 1494 1494 1494 1494 1494 1495 1496 1495 1496 1496 1497 1498 1499 1500 1501 1501 1501 1502 1502 1503 1505 1506 1507 1509 1511 1512 1513 1515 1517 1519 1521 1522 1524 1525 1526 1527 1527 1528 1529 1529 1529 1529 1529 1529 1530 1530 1530 1530 1530 1530 1530 1530 1530 1530 1530 1529 1529 1528 1528 1527 1526 1524 1523 1522 1520 1518 1516 1514 1513 1512 1510 1509 1507 1505 1503 1501 1500
1491 1490 1489 1488 1488 1488 1488 1488 1489 1489 1490 1490 1490 1491 1491 1492 1492 1492 1493 1494 1495 1496 1497 1498 1499 1499 1499 1500 1502 1503 1504 1506 1507 1509 1511 1512 1514 1517 1519 1520 1522 1523 1524 1525 1526 1527 1527 1527 1527 1528 1528 1528 1528 1528 1528 1528 1528 1528 1528 1528 1528 1528 1527 1527 1527 1526 1525 1525 1523 1522 1521 1519 1519 1518 1515 1513 1511 1510 1508 1505 1503 1501 1500 1499 1497
1489 1487 1487 1485 1484 1484 1484 1484 1484 1484 1485 1485 1486 1486 1486 1487 1488 1489 1489 1490 1492 1492 1493 1494 1495 1496 1497 1497 1499 1500 1502 1503 1504 1506 1508 1510 1512 1514 1516 1518 1520 1521 1522 1523 1524 1525 1525 1525 1526 1526 1526 1526 1527 1527 1527 1527 1527 1527 1526 1526 1526 1526 1525 1525 1525 1524 1523 1522 1521 1519 1518 1517 1517 1515 1513 1511 1509 1507 1505 1503 1502 1500 1498 1497 1495
1484 1483 1483 1482 1481 1480 1479 1479 1479 1480 1480 1480 1481 1481 1481 1481 1483 1484 1485 1485 1486 1487 1488 1490 1491 1491 1493 1495 1496 1497 1499 1501 1503 1505 1507 1508 1510 1512 1514 1515 1517 1518 1520 1522 1522 1523 1524 1524 1525 1525 1525 1525 1525 1526 1526 1525 1525 1525 1525 1525 1525 1525 1524 1524 1524 1523 1522 1520 1518 1517 1516 1515 1514 1512 1510 1508 1506 1504 1503 1501 1500 1498 1496 1495 1493
1480 1479 1478 1478 1478 1477 1476 1475 1475 1476 1476 1476 1477 1477 1475 1475 1477 1479 1480 1480 1482 1483 1485 1486 1488 1489 1491 1492 1494 1496 1498 1500 1502 1504 1505 1507 1508 1510 1512 1513 1514 1516 1518 1520 1521 1522 1522 1523 1523 1523 1524 1524 1525 1525 1525 1524 1524 1524 1523 1523 1523 1523 1523 1523 1523 1522 1520 1518 1516 1516 1514 1513 1511 1509 1507 1506 1503 1502 1500 1499 1497 1496 1495 1493 1492
1476 1474 1474 1473 1473 1473 1472 1471 1471 1471 1471 1472 1472 1473 1472 1471 1471 1473 1475 1477 1479 1480 1481 1482 1484 1487 1489 1491 1494 1496 1498 1499 1501 1502 1503 1505 1507 1508 1509 1511 1513 1516 1518 1519 1520 1521 1521 1521 1522 1522 1523 1523 1524 1524 1523 1523 1523 1523 1523 1523 1523 1522 1522 1522 1521 1519 1518 1516 1516 1515 1513 1511 1509 1507 1505 1503 1501 1499 1498 1496 1495 1494 1493 1492 1490
1471 1470 1469 1468 1468 1468 1468 1468 1467 1467 1467 1467 1468 1468 1469 1468 1467 1468 1471 1473 1475 1477 1478 1479 1481 1483 1486 1489 1492 1494 1496 1497 1498 1500 1502 1504 1505 1507 1508 1510 1512 1514 1516 1517 1518 1519 1519 1520 1521 1521 1521 1522 1522 1522 1522 1522 1522 1522 1522 1522 1522 1522 1521 1520 1519 1517 1516 1515 1514 1513 1511 1509 1507 1505 1503 1501 1499 1497 1496 1494 1494 1493 1491 1490 1488
1467 1466 1465 1464 1463 1463 1463 1463 1463 1463 1463 1463 1464 1465 1465 1465 1465 1466 1467 1469 1472 1474 1475 1478 1479 1481 1484 1487 1490 1492 1494 1496 1496 1497 1500 1502 1504 1506 1508 1509 1511 1512 1514 1515 1517 1518 1518 1519 1519 1519 1520 1520 1520 1520 1521 1521 1521 1521 1521 1521 1521 1521 1520 1519 1517 1516 1515 1514 1513 1511 1509 1508 1505 1503 1501 1499 1498 1496 1494 1493 1492 1491 1490 1488 1487
1464 1462 1461 1460 1459 1459 1459 1459 1459 1460 1460 1460 1460 1461 1461 1462 1464 1464 1464 1465 1468 1470 1472 1474 1477 1479 1481 1485 1488 1490 1492 1494 1495 1496 1498 1500 1502 1504 1507 1508 1510 1511 1512 1513 1515 1516 1517 1517 1518 1518 1518 1518 1518 1519 1519 1519 1519 1519 1519 1520 1520 1520 1519 1517 1516 1515 1514 1513 1511 1510 1508 1506 1504 1502 1500 1498 1496 1495 1493 1492 1490 1489 1488 1486 1485
1460 1458 1457 1456 1455 1455 1455 1455 1455 1456 1457 1456 1456 1457 1458 1459 1461 1462 1462 1463 1465 1467 1469 1471 1473 1475 1478 1481 1484 1487 1488 1490 1493 1494 1496 1497 1500 1502 1504 1506 1507 1509 1510 1512 1514 1515 1516 1516 1516 1516 1516 1516 1516 1517 1517 1518 1518 1518 1518 1518 1518 1518 1517 1516 1515 1513 1512 1511 1510 1509 1506 1504 1502 1500 1498 1496 1495 1493 1491 1490 1489 1487 1486 1485 1483
1457 1455 1453 1452 1451 1451 1450 1451 1451 1453 1454 1454 1454 1454 1455 1457 1459 1460 1461 1462 1464 1465 1466 1468 1470 1472 1475 1478 1481 1483 1485 1487 1489 1491 1493 1494 1497 1499 1501 1503 1505 1507 1509 1511 1512 1514 1514 1515 1515 1515 1514 1514 1515 1515 1516 1516 1517 1517 1517 1517 1517 1516 1515 1515 1514 1512 1510 1510 1509 1507 1505 1503 1501 1499 1497 1495 1493 1491 1490 1488 1487 1486 1484 1483 1481
1454 1452 1450 1449 1448 1447 1447 1447 1448 1449 1450 1451 1451 1452 1453 1455 1456 1458 1459 1461 1462 1463 1464 1466 1468 1470 1472 1475 1477 1479 1481 1484 1487 1490 1492 1494 1496 1498 1500 1502 1504 1505 1508 1509 1511 1512 1513 1514 1513 1513 1512 1513 1514 1514 1514 1515 1516 1516 1516 1516 1515 1515 1514 1513 1512 1510 1508 1508 1508 1506 1504 1502 1500 1498 1496 1494 1492 1490 1488 1487 1485 1484 1482 1481 1479
1451 1449 1447 1445 1445 1445 1445 1445 1445 1446 1447 1448 1449 1450 1451 1453 1454 1456 1457 1459 1460 1461 1463 1464 1466 1468 1469 1471 1474 1476 1478 1481 1483 1486 1490 1492 1495 1498 1500 1501 1502 1504 1506 1508 1509 1511 1512 1512 1511 1510 1511 1511 1513 1513 1514 1514 1514 1515 1515 1514 1514 1514 1513 1512 1511 1509 1509 1508 1508 1506 1504 1502 1500 1497 1495 1493 1491 1489 1487 1485 1484 1482 1480 1479 1477
1449 1446 1444 1442 1442 1442 1443 1443 1444 1445 1445 1446 1447 1448 1450 1451 1452 1454 1456 1457 1459 1460 1462 1463 1465 1465 1467 1468 1470 1472 1475 1476 1478 1481 1486 1490 1494 1497 1498 1499 1501 1503 1504 1506 1508 1509 1510 1509 1509 1509 1509 1510 1512 1513 1513 1513 1513 1513 1513 1513 1513 1513 1512 1511 1511 1510 1509 1508 1506 1505 1503 1501 1499 1496 1494 1492 1490 1487 1485 1483 1482 1480 1479 1477 1475
1447 1445 1442 1440 1440 1440 1441 1442 1443 1443 1444 1444 1446 1447 1449 1450 1451 1453 1455 1456 1458 1459 1461 1462 1463 1464 1465 1467 1468 1469 1471 1474 1477 1480 1485 1489 1493 1495 1497 1498 1499 1501 1503 1505 1506 1507 1507 1507 1507 1507 1508 1509 1511 1511 1512 1512 1512 1512 1512 1512 1512 1512 1511 1511 1510 1509 1508 1506 1505 1504 1502 1499 1497 1495 1493 1491 1488 1486 1483 1482 1480 1479 1477 1475 1473
1447 1445 1443 1441 1440 1440 1441 1441 1442 1443 1443 1444 1445 1447 1448 1450 1451 1453 1454 1456 1457 1458 1460 1462 1462 1463 1464 1467 1468 1469 1472 1476 1479 1481 1485 1488 1491 1493 1495 1496 1498 1500 1502 1503 1504 1505 1505 1505 1505 1506 1507 1509 1510 1510 1511 1511 1511 1512 1512 1511 1511 1511 1510 1510 1509 1508 1507 1505 1504 1503 1501 1499 1496 1493 1491 1488 1486 1484 1482 1481 1480 1478 1476 1474 1472
1449 1446 1444 1443 1442 1441 1441 1441 1442 1443 1443 1444 1445 1446 1448 1450 1451 1453 1454 1455 1456 1458 1460 1461 1462 1462 1464 1467 1469 1471 1473 1477 1480 1482 1484 1488 1490 1491 1493 1495 1497 1499 1501 1502 1503 1503 1504 1504 1505 1506 1507 1508 1508 1509 1510 1510 1510 1510 1510 1510 1510 1509 1509 1509 1508 1507 1506 1504 1503 1501 1499 1497 1494 1492 1489 1487 1485 1484 1482 1480 1479 1477 1475 1473 1471
1450 1448 1446 1444 1443 1443 1442 1442 1442 1443 1443 1444 1445 1446 1447 1449 1451 1452 1454 1455 1456 1458 1459 1460 1461 1463 1465 1467 1469 1471 1473 1477 1481 1483 1484 1486 1489 1490 1492 1494 1496 1498 1500 1501 1502 1502 1502 1503 1505 1506 1506 1506 1507 1508 1509 1509 1509 1509 1509 1509 1509 1508 1508 1508 1507 1506 1505 1503 1502 1500 1498 1495 1493 1491 1489 1487 1485 1483 1481 1479 1478 1476 1474 1472 1470
1452 1449 1448 1446 1445 1444 1443 1443 1443 1443 1443 1444 1445 1446 1447 1449 1451 1453 1454 1456 1457 1457 1458 1459 1460 1462 1464 1467 1469 1471 1473 1478 1482 1484 1483 1485 1488 1490 1493 1494 1496 1497 1499 1500 1501 1501 1502 1503 1504 1504 1504 1505 1506 1507 1507 1508 1508 1508 1508 1508 1508 1507 1507 1506 1506 1505 1504 1502 1501 1499 1497 1494 1492 1490 1488 1486 1484 1482 1480 1479 1477 1475 1473 1471 1469
1453 1451 1450 1448 1447 1445 1445 1444 1443 1443 1444 1444 1445 1446 1448 1450 1452 1453 1455 1456 1457 1457 1458 1459 1460 1462 1463 1465 1468 1471 1473 1477 1481 1484 1484 1485 1488 1491 1493 1494 1495 1497 1498 1499 1500 1501 1502 1503 1503 1503 1503 1504 1505 1506 1506 1507 1507 1507 1507 1507 1507 1506 1506 1505 1505 1504 1503 1501 1500 1498 1496 1493 1491 1489 1487 1485 1483 1482 1480 1478 1476 1474 1472 1470 1468
1454 1453 1451 1450 1449 1447 1446 1446 1445 1445 1446 1446 1446 1447 1449 1451 1453 1454 1455 1456 1456 1457 1458 1459 1461 1462 1464 1466 1469 1471 1473 1476 1481 1484 1485 1487 1489 1491 1492 1494 1495 1496 1498 1499 1499 1500 1501 1502 1502 1501 1502 1503 1504 1505 1506 1506 1506 1507 1506 1506 1506 1505 1505 1504 1504 1503 1501 1500 1499 1497 1495 1493 1491 1488 1486 1484 1483 1481 1480 1478 1475 1473 1471 1469 1467
1456 1454 1453 1451 1451 1450 1449 1448 1448 1448 1448 1448 1449 1449 1451 1452 1453 1454 1454 1455 1456 1457 1458 1459 1461 1462 1464 1466 1470 1473 1474 1477 1481 1484 1486 1487 1490 1491 1493 1494 1496 1497 1498 1498 1499 1499 1500 1500 1500 1500 1501 1502 1504 1505 1505 1506 1506 1506 1506 1505 1505 1504 1503 1503 1502 1502 1500 1499 1498 1496 1494 1492 1490 1487 1485 1484 1483 1481 1479 1477 1475 1472 1470 1468 1466
1460 1457 1455 1454 1453 1452 1451 1451 1450 1450 1450 1451 1451 1451 1452 1452 1453 1453 1454 1455 1456 1457 1459 1460 1461 1463 1465 1467 1471 1475 1477 1479 1482 1485 1487 1489 1491 1492 1494 1495 1496 1497 1497 1498 1498 1498 1498 1499 1499 1500 1501 1502 1503 1504 1505 1505 1505 1505 1505 1505 1504 1503 1502 1502 1501 1500 1499 1498 1497 1495 1493 1491 1489 1487 1486 1485 1483 1481 1479 1477 1474 1472 1470 1468 1466
1463 1461 1458 1457 1455 1454 1454 1454 1453 1452 1453 1453 1453 1453 1454 1454 1454 1454 1455 1456 1457 1458 1459 1460 1462 1465 1467 1470 1474 1478 1480 1482 1484 1486 1488 1490 1492 1493 1494 1495 1495 1496 1497 1497 1497 1497 1498 1498 1499 1500 1501 1502 1503 1504 1504 1505 1505 1505 1505 1504 1504 1503 1502 1501 1500 1499 1499 1498 1496 1495 1493 1491 1489 1487 1486 1485 1483 1481 1479 1477 1474 1471 1469 1468 1466
1466 1464 1462 1460 1458 1457 1457 1456 1456 1455 1455 1455 1454 1455 1455 1456 1456 1457 1457 1458 1459 1460 1461 1463 1465 1467 1470 1472 1476 1480 1482 1484 1485 1487 1489 1490 1492 1493 1494 1495 1495 1495 1496 1496 1496 1497 1498 1498 1499 1500 1501 1502 1503 1504 1504 1504 1504 1504 1504 1504 1503 1502 1501 1500 1499 1499 1498 1497 1496 1494 1493 1491 1489 1487 1486 1485 1483 1481 1479 1477 1474 1472 1470 1468 1467
1469 1467 1465 1463 1462 1461 1460 1459 1459 1459 1458 1457 1457 1457 1457 1457 1458 1459 1460 1461 1462 1463 1465 1467 1469 1471 1473 1476 1479 1482 1483 1485 1486 1488 1489 1491 1492 1493 1494 1494 1494 1495 1495 1495 1496 1496 1497 1498 1499 1500 1501 1502 1503 1503 1503 1504 1504 1504 1504 1503 1503 1502 1501 1500 1499 1498 1497 1496 1495 1494 1492 1491 1489 1488 1486 1485 1483 1480 1478 1477 1474 1472 1471 1469 1467